Regional Weather Roundup
Issued by NWS

Home | Current Version | Previous Version | Graphics & Text | Print | Product List | Glossary On
Versions: 1 2 3 4 5 6 7 8 9 10 11 12 13 14 15 16 17 18 19 20 21 22 23 24 25 26 27
000
ASUS45 KTFX 311010
RWRMT
MONTANA REGIONAL WEATHER ROUNDUP
NATIONAL WEATHER SERVICE GREAT FALLS MT
400 AM MDT TUE MAY 31 2016

NOTE: "FAIR" INDICATES FEW OR NO CLOUDS BELOW 12000 FEET WITH NO
SIGNIFICANT WEATHER AND/OR OBSTRUCTIONS TO VISIBILITY.

MTZ001>007-043-311100-
WEST OF THE DIVIDE

CITY           SKY/WX    TMP DP  RH WIND       PRES   REMARKS
KALISPELL      CLEAR     48  38  68 N9        30.18R
MISSOULA       CLEAR     40  34  79 CALM      30.21R
BUTTE          CLEAR     34  27  75 SE3       30.23R
MULLAN PASS    CLEAR     43  26  51 NW7       30.23F
ANACONDA         N/A     39  30  70 W3        30.23R
DEER LODGE       N/A     39  34  81 W6        30.24S
EUREKA           N/A     41  37  87 CALM      30.23R
HAMILTON         N/A     41  32  70 CALM      30.20R
LIBBY            N/A     37  36  93 CALM      30.22R
$$

MTZ008-052>055-311100-
SOUTHWEST MONTANA

CITY           SKY/WX    TMP DP  RH WIND       PRES   REMARKS
BOZEMAN        CLEAR     38  33  82 S3        30.22R
DILLON         CLEAR     41  32  70 E3        30.20R
W YELLOWSTONE  CLEAR     27  25  93 CALM      30.22S
ENNIS          CLEAR     37  32  81 SE7       30.25S
$$

MTZ009-010-012-014-046-048-049-054-311100-
EAST SLOPES AND CENTRAL MONTANA

CITY           SKY/WX    TMP DP  RH WIND       PRES   REMARKS
CUT BANK       CLEAR     40  37  89 NW14      30.23R
GREAT FALLS    MOCLDY    42  37  82 W8        30.22S
MALMSTROM AFB  CLEAR     45  39  79 W12       30.22S
HELENA         PTCLDY    46  35  65 W7        30.22S
CHOTEAU          N/A     41  37  87 NW12      30.25S
$$

MTZ011-013-016-021-045-047-050-051-311100-
NORTH CENTRAL MONTANA

CITY           SKY/WX    TMP DP  RH WIND       PRES   REMARKS
HAVRE          CLOUDY    47  44  90 NW21G32   30.10S
LEWISTOWN      CLOUDY    44  37  76 W18G25    30.14R
N BAR RANCH    MOCLDY    43  36  75 NW26G44   30.07F
CHINOOK          N/A     48  46  93 W17G25    30.06R
$$

MTZ017>020-022>027-061-062-311100-
NORTHEAST MONTANA

CITY           SKY/WX    TMP DP  RH WIND       PRES   REMARKS
GLASGOW        CLOUDY    50  48  93 NW14      29.85F
JORDAN           N/A     47  46  97 W22G29    29.91F
SIDNEY         MOCLDY    50  46  86 W13       29.80F
WOLF POINT     LGT RAIN  51  49  92 W8        29.83F
POPLAR           N/A     48  46  93 W9        29.83F
$$

MTZ028>42-056>058-311100-
SOUTHCENTRAL AND SOUTHEAST MONTANA

CITY           SKY/WX    TMP DP  RH WIND       PRES   REMARKS
BAKER          CLOUDY    46  41  82 W15       29.89F
BILLINGS       PTCLDY    49  34  56 NW15      30.11S
LIVINGSTON     CLEAR     40  32  73 SW9       30.19S
MILES CITY     LGT RAIN  48  44  86 W26G33    29.93F
FORSYTH          N/A     46  46 100 W22G28    29.97F
$$

REGIONAL REPORTS...DAKOTAS

CITY           SKY/WX    TMP DP  RH WIND       PRES   REMARKS
WILLISTON      LGT RAIN  50  48  93 W14       29.76F
MINOT          CLOUDY    57  54  89 NW6       29.70F
DICKINSON      MOCLDY    43  41  93 W12       29.81F
BEACH          CLOUDY    46  46 100 W17G23    29.87S
CROSBY         RAIN      54  54 100 N14       29.77F
WATFORD CITY   MOCLDY    46  46 100 W9        29.78F
BISMARCK       PTCLDY    52  49  89 W13       29.78S
GRAND FORKS    MOCLDY    60  57  89 SE13      29.67S
FARGO          CLOUDY    61  58  90 S10       29.73R
BUFFALO SD       N/A     46  41  82 W21       29.88S
RAPID CITY     CLOUDY    46  32  58 W3        30.00F
$$

REGIONAL REPORTS...WYOMING/IDAHO/WASHINGTON

CITY           SKY/WX    TMP DP  RH WIND       PRES   REMARKS
GILLETTE       CLEAR     44  41  89 W15       30.07S
SHERIDAN       CLEAR     47  34  60 W13       30.08F
BUFFALO WY     CLEAR     44  30  57 NW10      30.12R
CODY           CLEAR     37  32  81 S3        30.15F
YELLOWSTONE LA   N/A     27  22  81 NW3       30.25F
IDAHO FALLS    CLEAR     39  33  79 NW5       30.14R
SALMON         CLEAR     37  27  65 CALM      30.18R
BOISE          CLEAR     50  37  61 S6        30.09R
SPOKANE        PTCLDY    49  33  54 CALM      30.17S
$$

REGIONAL REPORTS...ALBERTA

CITY           SKY/WX    TMP DP  RH WIND       PRES   REMARKS
EDMONTON       PTCLDY    43  37  81 NW7       30.22S
CALGARY        PTCLDY    45  37  76 W2        30.25S
LETHBRIDGE     PTCLDY    39  37  93 W9        30.24S
MEDICINE HAT   CLOUDY    48  46  93 NW14G20   30.14R
WATERTON GATE    N/A     37  36  93 S1          N/A
$$

REGIONAL REPORTS...SASKATCHEWAN

CITY           SKY/WX    TMP DP  RH WIND       PRES   REMARKS
SWIFT CURRENT  CLOUDY    50  48  93 N13       29.99R
SASKATOON      CLOUDY    48  48 100 N8        30.04S
VAL MARIE        N/A     50  48  93 N21G28      N/A
ROCKGLEN         N/A     48  48 100 N12G17      N/A
$$




USA.gov is the U.S. government's official web portal to all federal, state and local government web resources and services.